Regional Weather Roundup
Issued by NWS

Home | Current Version | Previous Version | Text Only | Print | Product List | Glossary On
Versions: 1 2 3 4 5 6 7 8 9 10 11 12 13 14 15 16 17 18 19 20 21 22 23 24 25 26 27 28 29 30 31 32 33 34 35 36 37 38 39 40 41 42 43 44 45 46 47 48 49 50
000
ASUS44 KFWD 211610
RWRTX
NORTH TEXAS HOURLY WEATHER ROUNDUP
NATIONAL WEATHER SERVICE FORT WORTH TX
1000 AM CST TUE FEB 21 2017

NOTE: "FAIR" INDICATES FEW OR NO CLOUDS BELOW 12,000 FEET WITH NO
SIGNIFICANT WEATHER AND/OR OBSTRUCTIONS TO VISIBILITY.

TXZ118-119-211700-
DALLAS/FORT WORTH METROPLEX

CITY           SKY/WX    TMP DP  RH WIND       PRES   REMARKS
DFW AIRPORT    SUNNY     62  48  60 NW16      29.97R
DALLAS LOVE    SUNNY     61  49  64 N9        29.99R
FTW MEACHAM    SUNNY     62  44  51 NW16      29.99R
DAL-EXECUTIVE  SUNNY     60  50  69 NW10      29.98R
FTW-ALLIANCE   SUNNY     61  46  57 NW13      29.99R
FTW-NAS-JRB    SUNNY     62  44  51 NW17      30.01R
FTW-SPINKS     SUNNY     63  46  55 NW10      30.01R
ARLINGTON      SUNNY     61  46  57 NW13      29.99R
GRAND PRAIRIE  SUNNY     61  45  55 W9        30.00S
ADDISON        SUNNY     59  48  67 NW9       29.99S
MESQUITE       SUNNY     59  52  77 W9        29.98R
LANCASTER      SUNNY     59  50  74 NW10      30.00R
$$

TXZ091>094-102>105-117-120-121-131>134-211700-
NORTH CENTRAL TEXAS

CITY           SKY/WX    TMP DP  RH WIND       PRES   REMARKS
SHRMAN/DENISON SUNNY     56  51  85 NW9       29.99R
GAINESVILLE    SUNNY     57  46  66 NW14G20   30.01R
BOWIE          SUNNY     59  48  66 NW13      30.02S
BRIDGEPORT     SUNNY     59  44  58 NW10      30.05R
DECATUR        SUNNY     57  45  62 NW10      30.01S
DENTON         SUNNY     59  48  67 NW12      29.99R
MCKINNEY       SUNNY     59  52  77 NW10      29.98R
BONHAM         CLOUDY    54  52  94 NW8       29.96R
GREENVILLE     SUNNY     61  54  77 NW6       29.96R
ROCKWALL       SUNNY     58  52  80 NW10      29.98R
TERRELL        SUNNY     61  54  77 NW10      29.97R
WAXAHACHIE     SUNNY     59  49  69 NW14      30.00R
CLEBURNE       SUNNY     61  50  67 NW12      30.02R
GRANBURY       SUNNY     62  43  50 NW10      30.04R
$$

TXZ083>090-098>101-113>116-127>130-139>142-154-155-211700-
WESTERN NORTH TEXAS

CITY           SKY/WX    TMP DP  RH WIND       PRES   REMARKS
WICHITA FALLS  SUNNY     59  43  55 N12       30.05R
WF-KICKAPOO    SUNNY     58  43  57 NW9       30.07R
VERNON         SUNNY     57  38  48 N8        30.09R
ABILENE        SUNNY     59  33  37 NW8       30.10S
ABILENE-DYESS  SUNNY     60  34  36 NW8       30.09S
GRAHAM           N/A    N/A N/A N/A NW10      30.04F
BRECKENRIDGE   SUNNY     61  38  41 NW9       30.06F
CISCO          SUNNY     59  37  44 NW7       30.08R
RANGER         SUNNY     61  37  41 NW13      30.06S
MINERAL WELLS  SUNNY     61  42  49 NW10      30.02R
STEPHENVILLE   SUNNY     62  40  45 NW6       30.07R
COMANCHE       SUNNY     63  39  41 NW12G17   30.07R
BROWNWOOD      SUNNY     59  37  44 NW8       30.09S
COLEMAN        SUNNY     63  35  34 N10       30.09S
$$

TXZ143>147-156>162-174-175-211700-
CENTRAL TEXAS

CITY           SKY/WX    TMP DP  RH WIND       PRES   REMARKS
WACO           SUNNY     62  48  60 N14       30.00R
WACO-TSTC      SUNNY     61  48  63 NW10G21   30.00R
WACO-MCGREGOR  SUNNY     62  48  60 NW12      30.01R
HILLSBORO      SUNNY     59  50  70 NW12      29.99S
CORSICANA      SUNNY     59  53  80 N10       30.00R
MEXIA          SUNNY     59  48  67 NW13      29.98R
HEARNE         SUNNY     60  48  64 NW12      30.00S
CAMERON        SUNNY     62  48  60 NW13      30.01R
TEMPLE         SUNNY     63  46  54 NW10      30.02R
KILLEEN        SUNNY     62  41  45 NW12      30.02R
KILLEEN-SKYLRK SUNNY     64  43  46 NW14      30.03R
FORT HOOD      SUNNY     63  43  47 NW16      30.00R
GATESVILLE     SUNNY     64  43  45 NW12      30.05R
HAMILTON       SUNNY     60  40  48 NW17      30.05R
LAMPASAS       SUNNY     61  41  49 NW9       30.04S
$$

TXZ095>097-106>112-122>126-135>138-148>153-164>167-211700-
EAST TEXAS

CITY           SKY/WX    TMP DP  RH WIND       PRES   REMARKS
PARIS          PTSUNNY   57  54  88 NE9       29.93F
SULPHUR SPRNGS PTSUNNY   61  57  88 N7        29.96S
MOUNT PLEASANT PTSUNNY   60  56  87 N8        29.94F
GILMER         CLOUDY    60  56  85 CALM      29.94S
MINEOLA        PTSUNNY   59  55  88 NW5       29.95R
TYLER          CLOUDY    61  58  90 CALM      29.95R
LONGVIEW       CLOUDY    62  59  90 VRB6      29.93F
MARSHALL       CLOUDY    58  55  90 W3        29.96S
ATHENS         PTSUNNY   57  57 100 NW3       29.96R
PALESTINE      PTSUNNY   59  59  99 W8        29.98R
JACKSONVILLE   CLOUDY    59  58  95 NW3       29.98R
HENDERSON      PTSUNNY   60  60 100 W3        29.96S
CENTER         CLOUDY    64  61  88 W3        29.97R
NACOGDOCHES    CLOUDY    61  55  82 NW8       29.95R
LUFKIN         PTSUNNY   61  57  87 SW5       29.94S
$$

SUPPLEMENTAL OBSERVATIONS (CENTRAL)

CITY           SKY/WX    TMP DP  RH WIND       PRES   REMARKS
MCGREGOR         N/A     64  48  55 N12         N/A
$$

SUPPLEMENTAL OBSERVATIONS (WEST)

CITY           SKY/WX    TMP DP  RH WIND       PRES   REMARKS
$$

SUPPLEMENTAL OBSERVATIONS (EAST)

CITY           SKY/WX    TMP DP  RH WIND       PRES   REMARKS
$$

SUPPLEMENTAL OBSERVATIONS ARE A COLLECTION OF AUTOMATED INSTRUMENTS
THAT ARE MAINTAINED BY A VARIETY OF FEDERAL AND STATE AGENCIES.
CERTAIN ELEMENTS...SUCH AS HUMIDITY VALUES AND SUSTAINED WIND
SPEEDS...MAY BE APPROXIMATED.





USA.gov is the U.S. government's official web portal to all federal, state and local government web resources and services.